This is the latest recevied weather packets stored in our database for station/object W4BOD. If no packets are shown the sender has not sent any weather packets the latest 10 day(s).
| Time | Temp. | Humidity | Pressure | Rain* | Wind** | Luminosity | Snow |
|---|---|---|---|---|---|---|---|
| 1778010695 | 24.44° C | 53% | 1009.5 hPa | 0 mm | - | 818 W/m² | - |
| 1778010392 | 23.89° C | 55% | 1009.8 hPa | 0 mm | - | 809 W/m² | - |
| 1778010088 | 23.89° C | 58% | 1009.5 hPa | 0 mm | - | 881 W/m² | - |
| 1778009785 | 23.89° C | 56% | 1009.8 hPa | 0 mm | - | 416 W/m² | - |
| 1778009482 | 23.89° C | 53% | 1010.4 hPa | 0 mm | - | 1075 W/m² | - |
| 1778009181 | 23.33° C | 54% | 1010.3 hPa | 0 mm | - | 441 W/m² | - |
| 1778008877 | 23.33° C | 53% | 1010.3 hPa | 0 mm | - | 464 W/m² | - |
| 1778008576 | 23.89° C | 53% | 1010.7 hPa | 0 mm | - | 816 W/m² | - |
| 1778008274 | 23.89° C | 55% | 1010.4 hPa | 0 mm | - | 645 W/m² | - |
| 1778007969 | 23.89° C | 53% | 1010.6 hPa | 0 mm | - | 950 W/m² | - |
| 1778007664 | 23.89° C | 57% | 1010.8 hPa | 0 mm | - | 639 W/m² | - |
| 1778007361 | 24.44° C | 55% | 1010.4 hPa | 0 mm | - | 939 W/m² | - |
| 1778007057 | 23.89° C | 56% | 1010.6 hPa | 0 mm | - | 921 W/m² | - |
| 1778006754 | 23.89° C | 55% | 1010.5 hPa | 0 mm | - | 609 W/m² | - |
| 1778006451 | 23.89° C | 58% | 1010.5 hPa | 0 mm | - | 864 W/m² | - |
| 1778006148 | 23.33° C | 59% | 1010.4 hPa | 0 mm | - | 1011 W/m² | - |
| 1778005846 | 22.78° C | 60% | 1010.5 hPa | 0 mm | - | 657 W/m² | - |
| 1778005541 | 22.78° C | 63% | 1010.5 hPa | 0 mm | - | 425 W/m² | - |
| 1778005238 | 22.22° C | 61% | 1010.3 hPa | 0 mm | - | 374 W/m² | - |
| 1778004935 | 22.22° C | 62% | 1010.4 hPa | 0 mm | - | 281 W/m² | - |
| 1778004633 | 22.22° C | 61% | 1010.5 hPa | 0 mm | - | 297 W/m² | - |
| 1778004328 | 22.22° C | 63% | 1010.3 hPa | 0 mm | - | 295 W/m² | - |
| 1778004026 | 22.22° C | 63% | 1010.7 hPa | 0 mm | - | 306 W/m² | - |
| 1778003721 | 22.22° C | 62% | 1010.7 hPa | 0 mm | - | 281 W/m² | - |
| 1778003418 | 22.78° C | 62% | 1010.9 hPa | 0 mm | - | 373 W/m² | - |
* Rain latest hour (hover to see other rain measurements)
** Current wind speed in m/s (hover to see current wind gust speed)